Location: Potawatomi Wildlife Park
(41.2308°N, 86.1050°W)
Time: 21:44:11
(UTC-04:00)

Daily predictions for brighter satellites

Satellite Brightness Start Highest point End
(mag) Time Altitude Azimuth Time Altitude Azimuth Time Altitude Azimuth
CZ-3B R/B 4.4 21:46:20 10° S 21:48:56 31° ESE 21:55:24 10° NE
Meteor 1-24 Rocket 4.1 21:48:30 10° SSW 21:54:24 76° W 22:00:09 10° N
Cosmos 1570 Rocket 4.3 21:50:07 10° NNW 21:55:21 58° ENE 22:00:32 10° SSE
USA 32 4.0 21:52:01 10° S 21:57:14 76° E 22:02:29 10° N
Atlas Centaur 2 3.2 21:56:01 10° SW 21:57:47 13° SSW 21:59:30 10° SSE
Abrixas rocket 4.1 21:58:40 10° NW 22:01:29 26° NNE 22:04:18 10° ENE
Cosmos 1242 Rocket 3.2 22:00:01 10° N 22:03:33 40° ENE 22:07:03 10° SSE
SAR-Lupe-1 4.1 22:04:19 10° SSE 22:07:53 70° ENE 22:11:29 10° N
Helios 1B rocket 2.6 22:04:18 10° N 22:08:28 81° WNW 22:12:35 10° SSW
Cosmos 2084 3.3 22:07:42 10° SW 22:11:43 86° WNW 22:15:35 10° NE
USA 186 4.2 22:13:34 10° WSW 22:14:15 11° W 22:14:56 10° WNW
Cosmos 1867 3.5 22:09:39 10° SSW 22:15:04 79° ESE 22:20:33 10° NE
Cosmos 2333 Rocket 4.5 22:11:11 10° NW 22:15:13 20° W 22:19:13 10° SW
Milstar 3 Cent rocket 4.3 22:09:23 10° WSW 22:15:22 30° S 22:25:01 11° SE
Resurs 01 Rocket 4.1 22:13:20 10° SW 22:16:32 20° W 22:19:46 10° NW
Helios 1A 3.7 22:13:38 10° S 22:17:40 51° W 22:21:43 10° NNW
USA 234 3.7 22:11:49 10° ENE 22:17:51 39° SE 22:23:52 10° SSW
Cosmos 1850 Rocket 4.3 22:16:40 10° SSW 22:21:49 72° WNW 22:27:02 10° NNE
NOAA 11 4.3 22:17:02 10° SSE 22:22:23 67° ENE 22:27:47 10° N
Cosmos 1459 Rocket 4.0 22:19:26 10° N 22:25:46 75° E 22:31:57 10° SSE
ERS-1 Rocket 3.0 22:22:02 10° SSE 22:27:04 83° ENE 22:32:08 10° NNW
Terra 3.8 22:24:20 10° E 22:27:11 16° ENE 22:30:01 10° NNE
Cosmos 2227 4.3 22:21:59 10° S 22:27:36 58° ESE 22:33:12 10° NNE
H-2A ROCKET BODY 3.8 22:28:16 10° S 22:31:01 15° SE 22:35:58 10° ESE
Cosmos 2100 Rocket 4.1 22:25:17 10° N 22:31:38 89° ENE 22:38:00 10° S
Cosmos 332 Rocket 4.4 22:28:47 10° N 22:33:29 44° ENE 22:37:02 17° SE
Cosmos 1356 Rocket 3.6 22:33:07 10° SSW 22:37:21 76° W 22:41:41 10° N
Cosmos 2061 Rocket 4.1 22:32:23 10° N 22:38:49 85° E 22:45:14 10° S
MetOp-B 4.1 22:35:14 12° SSE 22:40:11 83° ENE 22:45:35 10° NNW
Cosmos 2173 Rocket 4.0 22:35:16 10° N 22:41:28 84° W 22:47:42 10° S
Cosmos 2123 Rocket 4.2 22:36:04 10° SSE 22:41:54 52° E 22:47:53 10° NNE
H-2A R/B 2.6 22:39:05 16° SE 22:43:00 47° ENE 22:48:11 10° N
Cosmos 220 Rocket 4.5 22:39:18 12° S 22:43:06 41° ESE 22:47:14 10° NNE
YAOGAN 6 4.2 22:39:52 10° SSW 22:43:10 32° W 22:46:32 10° NNW
Cosmos 1626 4.1 22:44:38 14° E 22:45:11 14° E 22:47:13 10° NE
Cosmos 2058 4.4 22:44:53 17° ESE 22:46:15 20° E 22:49:22 10° NE
Cosmos 1726 2.1 22:46:16 10° N 22:49:56 65° E 22:52:04 23° SSE
Cosmos 2263 Rocket 3.0 22:46:57 17° SSE 22:50:10 30° ESE 22:54:58 10° NE
Cosmos 1300 2.9 22:49:52 10° N 22:53:38 54° E 22:55:37 25° SSE
RESURS DK-1 2.3 22:50:18 10° NNW 22:54:29 79° ENE 22:56:54 24° SSE
ATLAS 5 CENTAUR R/B 3.6 22:50:16 10° WSW 22:54:35 35° NW 22:59:17 10° NNE
SL-14 R/B 3.4 22:53:30 20° SSE 22:56:04 57° E 22:59:56 10° NNE
EO 1 Delta rocket 3.9 22:55:37 21° SSE 22:58:43 64° ENE 23:03:18 10° N
Cosmos 1408 Rocket 3.8 22:55:39 10° SSW 22:59:54 66° W 23:04:14 10° N
Meteor 2-2 Rocket 4.3 22:57:33 10° N 23:03:23 82° E 23:07:36 20° SSE
Cosmos 1725 Rocket 4.0 22:58:39 10° N 23:04:56 75° E 23:09:19 20° SSE
ERBS 2.8 23:01:44 10° NW 23:05:04 52° NE 23:06:28 29° ESE
Cosmos 1328 3.7 23:02:47 21° S 23:05:24 74° E 23:09:27 10° NNE
Cosmos 1802 Rocket 4.3 23:00:02 10° NNW 23:06:04 63° W 23:11:49 11° S
Cosmos 1356 4.0 23:11:37 36° SE 23:12:17 40° E 23:15:35 10° NNE
Tiangong 1 1.0 23:09:41 10° WNW 23:12:28 64° N 23:13:24 35° ENE
Cosmos 2151 3.3 23:10:59 30° SSE 23:12:43 47° E 23:16:51 10° NNE
Cosmos 1603 4.0 23:13:22 10° NNW 23:18:57 63° WSW 23:22:24 23° S
Cosmos 1500 Rocket 3.5 23:18:03 27° S 23:20:22 71° E 23:24:49 10° NNE
Cosmos 1814 Rocket 4.1 23:16:39 10° NNW 23:22:01 78° WSW 23:24:55 27° S
DMSP B5D2-2 4.0 23:17:58 10° NNE 23:23:12 68° ESE 23:26:17 25° S
Cosmos 371 Rocket 3.3 23:18:36 10° NNW 23:23:26 77° WSW 23:25:49 30° S
Cosmos 1455 3.3 23:23:34 10° NNE 23:26:58 29° ENE 23:27:33 27° E
CZ-4C R/B 3.7 23:28:14 17° E 23:28:14 17° E 23:31:07 10° ENE
ARGOS 4.0 23:24:14 16° SSW 23:28:19 46° W 23:33:31 10° NNW
Cosmos 1486 Rocket 4.0 23:24:28 14° SSW 23:29:06 88° WNW 23:34:27 10° NNE
SPOT 5 3.8 23:26:16 18° SSW 23:29:33 45° W 23:34:26 10° NNW
CARTOSAT-1 3.6 23:29:27 38° SE 23:30:57 63° ENE 23:35:13 10° N
Cosmos 841 Rocket 3.4 23:26:20 10° NNW 23:31:37 79° ENE 23:33:53 34° SSE
Lacrosse 5 2.2 23:27:36 10° NW 23:32:32 53° SW 23:34:30 33° S
Cosmos 1763 Rocket 3.4 23:28:04 10° NNW 23:33:11 79° WSW 23:35:29 33° S
Cosmos 1943 3.1 23:28:25 10° NNW 23:34:07 87° ENE 23:36:46 33° SSE
SL-19 R/B 4.4 23:30:10 10° NNE 23:35:26 54° ESE 23:37:45 32° SSE
SPOT 1/Viking Rocket 4.1 23:35:08 23° SSW 23:38:08 53° W 23:43:11 10° NNW
Abrixas rocket 2.0 23:35:16 10° WNW 23:38:31 88° SSW 23:38:41 80° SE
Cosmos 1805 Rocket 4.3 23:39:13 32° ESE 23:39:38 33° E 23:43:31 10° NNE
Cosmos 1515 Rocket 4.2 23:44:36 10° NNW 23:48:47 48° W 23:50:33 30° SSW
Cosmos 1151 Rocket 3.3 23:44:44 10° NNW 23:49:05 64° W 23:50:35 38° SSW
Landsat 7 4.2 23:47:28 32° SSW 23:49:29 58° W 23:54:12 10° NNW
IGS 5A 3.4 23:48:26 50° S 23:49:29 84° WSW 23:53:41 10° NNW
H-2A R/B 1.9 23:51:01 51° SSE 23:52:04 82° ENE 23:56:19 10° NNW
SME Rocket 3.8 23:52:50 33° E 23:53:38 37° ENE 23:57:52 10° N
